Location: Asheville, NC
(35.6000°N, 82.5500°W)
Time: 14:36:35
(UTC-04:00)

Vanguard 2 Rocket - Pass Details

Date: 15 December 2017
Orbit: 553 x 3328 km, 32.9° (Epoch: 20 April)

Event Time Altitude Azimuth Distance (km) Brightness Sun altitude
Exits shadow 02:00:37 12° 147° (SSE) 5,323 10.7 -66.0°
Drops below altitude 10° 02:01:30 10° 146° (SE) 5,475 10.8 -65.8°
Sets 02:05:23 0° 140° (SE) 6,186 11.2 -65.1°
